2023/10/16 00:00:00,54.1, 9.6
2023/10/16 00:10:00,54.1, 9.3
2023/10/16 00:20:00,54.0, 9.4
2023/10/16 00:30:00,54.0, 9.2
2023/10/16 00:40:00,54.1, 9.3
2023/10/16 00:50:00,54.1, 9.2
2023/10/16 01:00:00,54.1, 8.8
2023/10/16 01:10:00,54.1, 8.8
2023/10/16 01:20:00,54.0, 8.8
2023/10/16 01:30:00,54.0, 8.8
2023/10/16 01:40:00,53.9, 8.6
2023/10/16 01:50:00,53.9, 8.4
2023/10/16 02:00:00,54.0, 8.4
2023/10/16 02:10:00,54.0, 8.6
2023/10/16 02:20:00,53.9, 8.5
2023/10/16 02:30:00,53.9, 8.4
2023/10/16 02:40:00,53.9, 8.3
2023/10/16 02:50:00,54.0, 8.4
2023/10/16 03:00:00,54.0, 8.3
2023/10/16 03:10:00,54.0, 8.1
2023/10/16 03:20:00,53.9, 8.1
2023/10/16 03:30:00,53.9, 8.0
2023/10/16 03:40:00,---, 7.8
2023/10/16 03:50:00,53.8, 7.9
2023/10/16 04:00:00,53.7, 7.8
2023/10/16 04:10:00,53.9, 7.7
2023/10/16 04:20:00,---, 7.9
2023/10/16 04:30:00,53.7, 7.8
2023/10/16 04:40:00,53.7, 7.7
2023/10/16 04:50:00,53.5, 7.8
2023/10/16 05:00:00,53.7, 7.6
2023/10/16 05:10:00,53.8, 7.6
2023/10/16 05:20:00,53.7, 7.4
2023/10/16 05:30:00,53.1, 7.2
2023/10/16 05:40:00,53.7, 7.7
2023/10/16 05:50:00,53.6, 7.6
2023/10/16 06:00:00,49.5, 7.4
2023/10/16 06:10:00,53.4, 7.7
2023/10/16 06:20:00,---, 7.6
2023/10/16 06:30:00,52.7, 7.5
2023/10/16 06:40:00,53.1, 7.5
2023/10/16 06:50:00,53.3, 7.7
2023/10/16 07:00:00,53.5, 7.4
2023/10/16 07:10:00,53.3, 8.1
2023/10/16 07:20:00,53.5, 8.3
2023/10/16 07:30:00,53.5, 8.4
2023/10/16 07:40:00,53.4, 8.9
2023/10/16 07:50:00,53.6, 9.2
2023/10/16 08:00:00,53.6, 9.6
2023/10/16 08:10:00,53.6, 9.8
2023/10/16 08:20:00,53.5,10.6
2023/10/16 08:30:00,53.5,10.9
2023/10/16 08:40:00,53.6,11.6
2023/10/16 08:50:00,53.6,12.1
2023/10/16 09:00:00,53.5,13.0
2023/10/16 09:10:00,53.5,14.1
2023/10/16 09:20:00,53.3,14.4
2023/10/16 09:30:00,53.4,14.9
2023/10/16 09:40:00,53.2,16.3
2023/10/16 09:50:00,53.4,16.1
2023/10/16 10:00:00,53.5,16.0
2023/10/16 10:10:00,53.7,15.0
2023/10/16 10:20:00,53.8,14.5
2023/10/16 10:30:00,54.0,14.3
2023/10/16 10:40:00,54.1,15.1
2023/10/16 10:50:00,54.0,19.6
2023/10/16 11:00:00,54.0,17.0
2023/10/16 11:10:00,54.1,18.4
2023/10/16 11:20:00,54.2,18.5
2023/10/16 11:30:00,54.0,16.7
2023/10/16 11:40:00,54.2,16.3
2023/10/16 11:50:00,54.0,16.6
2023/10/16 12:00:00,54.0,18.4
2023/10/16 12:10:00,54.0,18.6
2023/10/16 12:20:00,53.8,19.2
2023/10/16 12:30:00,53.7,18.8
2023/10/16 12:40:00,53.8,18.3
2023/10/16 12:50:00,53.9,20.4
2023/10/16 13:00:00,---,20.5
2023/10/16 13:10:00,54.4,20.8
2023/10/16 13:20:00,54.6,20.7
2023/10/16 13:30:00,54.0,19.6
2023/10/16 13:40:00,54.0,20.4
2023/10/16 13:50:00,53.6,20.2
2023/10/16 14:00:00,53.4,20.0
2023/10/16 14:10:00,53.2,20.4
2023/10/16 14:20:00,53.2,19.4
2023/10/16 14:30:00,53.3,20.8
2023/10/16 14:40:00,53.3,19.0
2023/10/16 14:50:00,53.4,18.4
2023/10/16 15:00:00,53.8,17.6
2023/10/16 15:10:00,54.2,17.9
2023/10/16 15:20:00,54.2,17.2
2023/10/16 15:30:00,54.5,17.0
2023/10/16 15:40:00,54.4,17.1
2023/10/16 15:50:00,54.4,17.4
2023/10/16 16:00:00,54.5,16.9
2023/10/16 16:10:00,54.7,16.4
2023/10/16 16:20:00,54.8,15.8
2023/10/16 16:30:00,55.0,15.5
2023/10/16 16:40:00,55.1,15.0
2023/10/16 16:50:00,55.2,14.8
2023/10/16 17:00:00,55.2,14.3
2023/10/16 17:10:00,55.2,14.0
2023/10/16 17:20:00,55.3,13.8
2023/10/16 17:30:00,55.2,13.5
2023/10/16 17:40:00,55.3,12.8
2023/10/16 17:50:00,55.3,12.8
2023/10/16 18:00:00,55.3,12.5
2023/10/16 18:10:00,55.3,12.4
2023/10/16 18:20:00,55.3,12.3
2023/10/16 18:30:00,55.3,12.2
2023/10/16 18:40:00,55.3,12.1
2023/10/16 18:50:00,55.3,11.7
2023/10/16 19:00:00,55.4,11.7
2023/10/16 19:10:00,55.3,11.3
2023/10/16 19:20:00,55.3,11.4
2023/10/16 19:30:00,55.3,11.4
2023/10/16 19:40:00,55.3,11.5
2023/10/16 19:50:00,55.3,11.6
2023/10/16 20:00:00,55.3,11.5
2023/10/16 20:10:00,55.3,11.2
2023/10/16 20:20:00,55.3,11.3
2023/10/16 20:30:00,55.3,11.2
2023/10/16 20:40:00,55.2,10.9
2023/10/16 20:50:00,55.2,10.8
2023/10/16 21:00:00,55.2,10.8
2023/10/16 21:10:00,55.2,10.6
2023/10/16 21:20:00,55.1,10.3
2023/10/16 21:30:00,55.2,10.4
2023/10/16 21:40:00,55.2,10.4
2023/10/16 21:50:00,55.2,10.3
2023/10/16 22:00:00,55.2,10.1
2023/10/16 22:10:00,55.1,10.2
2023/10/16 22:20:00,55.1,10.0
2023/10/16 22:30:00,55.0,10.2
2023/10/16 22:40:00,55.0, 9.9
2023/10/16 22:50:00,55.0, 9.5
2023/10/16 23:00:00,55.0, 9.7
2023/10/16 23:10:00,54.9, 9.6
2023/10/16 23:20:00,55.0, 9.5
2023/10/16 23:30:00,54.9, 9.6
2023/10/16 23:40:00,54.9, 9.1
2023/10/16 23:50:00,54.9, 9.3
